Stündliche Wetter Cegla

Heute, 19 Januar, Dienstag

Zeit Temperatur Niederschläge Wind Luftdruck Luftfeuchtigkeit
00:00 -10°C° 0 mm 2 m/S 742 mmHg 92%
01:00 -10°C° 0 mm 2 m/S 742 mmHg 94%
02:00 -9°C° 0.2 mm 2 m/S 741 mmHg 94%
03:00 -9°C° 0.2 mm 3 m/S 741 mmHg 95%
04:00 -9°C° 0.2 mm 3 m/S 740 mmHg 95%
05:00 -8°C° 0.4 mm 3 m/S 740 mmHg 95%
06:00 -7°C° 0.4 mm 3 m/S 740 mmHg 95%
07:00 -6°C° 0.4 mm 3 m/S 740 mmHg 96%
08:00 -5°C° 0.2 mm 4 m/S 740 mmHg 95%
09:00 -4°C° 0.2 mm 4 m/S 740 mmHg 95%
10:00 -4°C° 0.2 mm 5 m/S 740 mmHg 94%
11:00 -2°C° 0.1 mm 5 m/S 739 mmHg 95%
12:00 -2°C° 0.1 mm 5 m/S 739 mmHg 96%
13:00 -1°C° 0.1 mm 4 m/S 739 mmHg 96%
14:00 -2°C° 0 mm 4 m/S 738 mmHg 95%
15:00 -1°C° 0 mm 3 m/S 738 mmHg 94%
16:00 -1°C° 0 mm 3 m/S 738 mmHg 92%
17:00 -1°C° 0.1 mm 3 m/S 738 mmHg 93%
18:00 -2°C° 0.1 mm 3 m/S 737 mmHg 94%
19:00 -2°C° 0.1 mm 3 m/S 737 mmHg 95%
20:00 -3°C° 0.3 mm 4 m/S 737 mmHg 95%
21:00 -3°C° 0.3 mm 4 m/S 737 mmHg 94%
22:00 -3°C° 0.3 mm 4 m/S 736 mmHg 94%
23:00 -3°C° 0.2 mm 4 m/S 736 mmHg 95%

Morgen, 20 Januar, Mittwoch

Zeit Temperatur Niederschläge Wind Luftdruck Luftfeuchtigkeit
00:00 -3°C° 0.2 mm 4 m/S 736 mmHg 96%
01:00 -4°C° 0.2 mm 4 m/S 736 mmHg 96%
02:00 -3°C° 0.9 mm 4 m/S 735 mmHg 97%
03:00 -2°C° 0.9 mm 4 m/S 735 mmHg 97%
04:00 -2°C° 0.9 mm 4 m/S 735 mmHg 97%
05:00 -1°C° 0.5 mm 4 m/S 735 mmHg 98%
06:00 -1°C° 0.5 mm 4 m/S 735 mmHg 98%
07:00 0°C° 0.5 mm 5 m/S 735 mmHg 98%
08:00 0°C° 0.1 mm 4 m/S 735 mmHg 98%
09:00 0°C° 0.1 mm 4 m/S 735 mmHg 98%
10:00 0°C° 0.1 mm 4 m/S 736 mmHg 98%
11:00 0°C° 0 mm 4 m/S 736 mmHg 99%
12:00 0°C° 0 mm 4 m/S 735 mmHg 99%
13:00 0°C° 0 mm 4 m/S 735 mmHg 99%
14:00 0°C° 0 mm 4 m/S 735 mmHg 97%
15:00 0°C° 0 mm 4 m/S 735 mmHg 94%
16:00 0°C° 0 mm 4 m/S 735 mmHg 91%
17:00 0°C° 0 mm 4 m/S 735 mmHg 89%
18:00 +1°C° 0 mm 3 m/S 735 mmHg 87%
19:00 0°C° 0 mm 3 m/S 735 mmHg 85%
20:00 0°C° 0 mm 3 m/S 735 mmHg 85%
21:00 0°C° 0 mm 3 m/S 735 mmHg 85%
22:00 -1°C° 0 mm 3 m/S 735 mmHg 84%
23:00 -1°C° 0 mm 3 m/S 735 mmHg 85%

übermorgen, 21 Januar, Donnerstag

Zeit Temperatur Niederschläge Wind Luftdruck Luftfeuchtigkeit
00:00 -1°C° 0 mm 3 m/S 735 mmHg 85%
01:00 -2°C° 0 mm 3 m/S 735 mmHg 86%
02:00 -2°C° 0 mm 3 m/S 734 mmHg 86%
03:00 -2°C° 0 mm 3 m/S 734 mmHg 85%
04:00 -2°C° 0 mm 2 m/S 734 mmHg 85%
05:00 -2°C° 0 mm 2 m/S 734 mmHg 86%
06:00 -2°C° 0 mm 2 m/S 734 mmHg 86%
07:00 -2°C° 0 mm 2 m/S 734 mmHg 86%
08:00 -1°C° 0 mm 2 m/S 734 mmHg 88%
09:00 +1°C° 0 mm 2 m/S 733 mmHg 91%
10:00 +1°C° 0 mm 2 m/S 733 mmHg 93%
11:00 +2°C° 0 mm 2 m/S 733 mmHg 95%
12:00 +2°C° 0 mm 2 m/S 733 mmHg 96%
13:00 +3°C° 0 mm 2 m/S 732 mmHg 97%
14:00 +2°C° 0 mm 2 m/S 732 mmHg 94%
15:00 +1°C° 0 mm 3 m/S 731 mmHg 91%
16:00 +1°C° 0 mm 3 m/S 731 mmHg 87%
17:00 +1°C° 0 mm 3 m/S 731 mmHg 88%
18:00 +1°C° 0 mm 3 m/S 731 mmHg 88%
19:00 +1°C° 0 mm 3 m/S 731 mmHg 89%
20:00 +1°C° 0 mm 3 m/S 731 mmHg 88%
21:00 +1°C° 0 mm 3 m/S 731 mmHg 88%
22:00 +1°C° 0 mm 3 m/S 731 mmHg 88%
23:00 +1°C° 0 mm 3 m/S 731 mmHg 87%

22 Januar, Freitag

Zeit Temperatur Niederschläge Wind Luftdruck Luftfeuchtigkeit
00:00 0°C° 0 mm 3 m/S 731 mmHg 87%
01:00 +1°C° 0 mm 2 m/S 731 mmHg 87%
02:00 0°C° 0 mm 3 m/S 730 mmHg 87%
03:00 0°C° 0 mm 3 m/S 730 mmHg 86%
04:00 0°C° 0 mm 4 m/S 729 mmHg 86%
05:00 0°C° 0 mm 4 m/S 728 mmHg 86%
06:00 0°C° 0 mm 4 m/S 728 mmHg 87%
07:00 +1°C° 0 mm 5 m/S 728 mmHg 87%
08:00 +1°C° 0 mm 5 m/S 727 mmHg 90%
09:00 +1°C° 0 mm 5 m/S 727 mmHg 92%
10:00 +2°C° 0 mm 5 m/S 727 mmHg 95%
11:00 +3°C° 0 mm 4 m/S 727 mmHg 95%
12:00 +3°C° 0 mm 4 m/S 727 mmHg 96%
13:00 +3°C° 0 mm 4 m/S 727 mmHg 96%
14:00 +3°C° 0 mm 4 m/S 726 mmHg 95%
15:00 +3°C° 0 mm 3 m/S 726 mmHg 94%
16:00 +3°C° 0 mm 2 m/S 726 mmHg 92%
17:00 +2°C° 0.6 mm 3 m/S 726 mmHg 94%
18:00 +2°C° 0.6 mm 3 m/S 726 mmHg 95%
19:00 +2°C° 0.6 mm 3 m/S 726 mmHg 96%
20:00 +2°C° 2.3 mm 3 m/S 726 mmHg 97%
21:00 +2°C° 2.3 mm 3 m/S 727 mmHg 97%
22:00 +2°C° 2.3 mm 3 m/S 727 mmHg 98%
23:00 0°C° 0.3 mm 4 m/S 727 mmHg 98%

23 Januar, Samstag

Zeit Temperatur Niederschläge Wind Luftdruck Luftfeuchtigkeit
00:00 0°C° 0.3 mm 5 m/S 728 mmHg 97%
01:00 -1°C° 0.3 mm 5 m/S 729 mmHg 97%
02:00 -1°C° 0 mm 5 m/S 729 mmHg 96%
03:00 -1°C° 0 mm 4 m/S 730 mmHg 95%
04:00 0°C° 0 mm 3 m/S 731 mmHg 94%
05:00 -1°C° 0 mm 2 m/S 731 mmHg 94%
06:00 -1°C° 0 mm 2 m/S 731 mmHg 94%
07:00 -1°C° 0 mm 2 m/S 732 mmHg 93%
08:00 -1°C° 0 mm 2 m/S 732 mmHg 93%
09:00 +1°C° 0 mm 1 m/S 732 mmHg 93%
10:00 +2°C° 0 mm 1 m/S 732 mmHg 93%
11:00 +2°C° 0 mm 1 m/S 732 mmHg 92%
12:00 +2°C° 0 mm 1 m/S 731 mmHg 92%
13:00 +2°C° 0 mm 2 m/S 731 mmHg 91%
14:00 +1°C° 0 mm 2 m/S 730 mmHg 91%
15:00 0°C° 0 mm 3 m/S 730 mmHg 90%
16:00 -1°C° 0 mm 4 m/S 729 mmHg 90%
17:00 -1°C° 0 mm 4 m/S 729 mmHg 91%
18:00 -1°C° 0 mm 4 m/S 728 mmHg 92%
19:00 -1°C° 0 mm 5 m/S 727 mmHg 93%
20:00 -1°C° 1.1 mm 5 m/S 727 mmHg 94%
21:00 -1°C° 1.1 mm 5 m/S 726 mmHg 96%
22:00 -1°C° 1.1 mm 5 m/S 725 mmHg 98%
23:00 -1°C° 1.8 mm 4 m/S 724 mmHg 98%

24 Januar, Sonntag

Zeit Temperatur Niederschläge Wind Luftdruck Luftfeuchtigkeit
00:00 0°C° 1.8 mm 3 m/S 723 mmHg 98%
01:00 0°C° 1.8 mm 3 m/S 722 mmHg 98%
02:00 0°C° 1.6 mm 3 m/S 722 mmHg 98%
03:00 0°C° 1.6 mm 3 m/S 721 mmHg 98%
04:00 0°C° 1.6 mm 3 m/S 720 mmHg 99%
05:00 -1°C° 0.7 mm 4 m/S 720 mmHg 97%
06:00 -2°C° 0.7 mm 6 m/S 720 mmHg 96%
07:00 -3°C° 0.7 mm 7 m/S 721 mmHg 95%
08:00 -2°C° 0 mm 7 m/S 721 mmHg 91%
09:00 -2°C° 0 mm 8 m/S 722 mmHg 87%
10:00 -2°C° 0 mm 8 m/S 722 mmHg 84%
11:00 -2°C° 0 mm 8 m/S 723 mmHg 84%
12:00 -2°C° 0 mm 8 m/S 723 mmHg 85%
13:00 -2°C° 0 mm 8 m/S 723 mmHg 85%
14:00 -2°C° 0 mm 7 m/S 724 mmHg 85%
15:00 -2°C° 0 mm 6 m/S 724 mmHg 84%
16:00 -1°C° 0 mm 5 m/S 724 mmHg 84%
17:00 -2°C° 0 mm 6 m/S 724 mmHg 83%
18:00 -3°C° 0 mm 6 m/S 725 mmHg 82%
19:00 -3°C° 0 mm 6 m/S 725 mmHg 82%
20:00 -3°C° 0 mm 6 m/S 725 mmHg 82%
21:00 -3°C° 0 mm 6 m/S 725 mmHg 82%
22:00 -3°C° 0 mm 6 m/S 725 mmHg 83%
23:00 -3°C° 0 mm 6 m/S 725 mmHg 83%
Mehr zeigen

Wir brauchen deine Erlaubnis

Meteoprog und unser Service Anbieter werden persönliche Daten aufbewahren, so wie Cookies, Geräte Bezeichnung oder ähnliche Technologien von deinem Gerät und Prozess, so wie Persönliche Daten Inhalte und Werbungen, genauso wie social Media und den Verkehr zu analysieren.

  • Aufbewahrung und/oder Zugang zu deiner Geräte Informationen.

    Cookies, Geräte Bezeichnung oder andere Informationen, können aufbewahrt oder Zugang zu deinem Gerät erhalten, für den Grund, der oben angegeben wird.

  • Personalisierte Werbung und Inhalte, Messungen, Einblick in das Publikum und Produkt Entwicklung.

    Werbungen und Inhalte können personalisiert werden, basierend auf ein Profil. Mehr Daten können besser personalisierte Werbungen und Inhalte hinzufügen. Werbung und Inhalte können gezeigt und gemessen werden. Einblicke über das Publikum, welche die Werbung gesehen haben und den Inhalt, können abgeleitet werden. So wie Daten können genutzt werden, um es zu verbessern oder die Benutzer Erfahrung zu verbessern das System und die Software.

Wenn du “Ich stimme zu” klickst, erlaubst du uns, die Cookies zu benutzen die Geräte Bezeichnung, den Web oder ähnliche Technologien zu benutzen. Deine Settings, können in deinem Gerät bei deinem Browser geändert werden.

Für den bestimmten Zweck, berechtigten Interessen beruhen darauf, mehr als auf den Inhalt. Du kannst mehr darüber in unseren Privaten und Cookie Politik lesen.